[[{"header":{"parameterUnit":"m.s-1","parameterCategory":1,"la1":30.2991,"la2":30.254,"lo1":-89.0895,"lo2":-89.0444,"dy":0.0017,"dx":0.0017,"nx":28,"ny":28,"refTime":"2025-03-09T03:00:00:Z","depth":0,"parameterNumber":2,"parameterNumberName":"U-component_of_WINDS"},"data":[0,0,0,0,0,0,0,0,0,0,0,0,0,0,0,0,0,0,0,0,0,0,0,0,0,0,0,0,0,0,0,0,0,0,0,0,0,0,0,0,0,0,0,0,0,0,0,0,0,0,0,0,0,0,0,0,0,0,4.9654,4.9654,0,4.9652,4.9652,4.9652,4.9523,4.952,4.9517,4.9513,4.9513,4.9516,4.9519,0,0,0,0,0,0,0,0,0,0,0,0,0,4.9549,4.9552,4.9654,4.9654,4.9654,4.9652,4.9652,4.9652,4.9524,4.952,4.9516,4.9512,4.9512,4.9515,4.9519,0,0,0,0,0,0,0,0,0,0,0,0,0,4.9576,4.9553,4.9654,4.959,4.9584,4.9652,4.9652,4.9652,4.9525,4.952,4.9515,4.951,4.9511,4.9515,4.952,4.965,0,0,4.9534,4.9536,0,0,0,0,0,0,0,0,4.9575,4.958,4.96,4.9595,4.9588,4.9583,4.9615,4.9652,4.9526,4.9547,4.9513,4.9507,4.954,4.9542,4.9553,4.965,4.965,4.9534,4.9537,4.9539,4.9541,0,0,0,0,0,0,0,4.9573,4.9579,4.9654,4.96,4.9593,4.9562,4.956,4.9621,4.9572,4.9545,4.9536,4.9537,4.9536,4.9549,4.9552,4.965,4.9534,4.9538,4.9541,4.9543,4.9855,4.986,0,0,0,0,0,0,4.958,4.9579,4.9654,4.9654,4.9569,4.9568,4.9566,4.959,4.9571,4.9564,4.9542,4.9531,4.9543,4.9547,4.9552,4.9704,4.9539,4.9544,4.9546,4.9849,4.9856,4.9862,0,0,0,0,0,0,4.9578,4.9588,4.9654,4.9614,4.962,4.9575,4.9603,4.9592,4.9605,4.9568,4.9559,4.9563,4.9539,4.9545,4.9627,4.9702,4.9546,4.955,4.9843,4.9851,4.9859,5.0009,0,0,0,0,0,0,4.9575,4.9588,4.9636,4.9616,4.9622,4.9729,4.9608,4.9596,4.9613,4.9599,4.9586,4.9579,4.9536,4.962,4.9631,4.9705,4.9554,4.9836,4.9847,4.9856,4.9997,5.0021,5.0042,0,0,0,0,0,4.9572,4.9678,4.9639,4.9649,4.9682,4.9733,4.9737,4.9684,4.962,4.9668,4.9645,4.958,4.9692,4.963,4.9641,4.9718,4.9831,4.9844,4.9856,4.9987,5.0016,5.0041,0,0,0,0,0,0,4.9709,4.9674,4.9631,4.9733,4.9737,4.9711,4.9771,4.9717,4.974,4.9726,4.966,4.9659,4.9751,4.9742,4.9674,4.9843,4.975,4.9765,4.9846,4.9874,4.9896,4.9896,4.9558,0,0,0,0,0,4.9751,4.9795,4.9763,4.9857,4.9861,4.9816,4.9837,4.9796,4.9797,4.9798,4.9781,4.9786,4.9822,4.9847,4.9878,4.9995,4.9991,5.0053,5.0076,5.0094,5.0108,5.0171,5.0199,4.9902,4.9902,4.9902,0,0,4.9839,4.9825,4.9857,4.9884,4.9882,4.993,4.9818,4.9873,4.9909,4.9807,4.9883,4.9871,4.9872,4.9972,5.0015,4.9968,5.0189,5.011,5.0125,5.0129,5.0187,5.0215,5.024,4.9911,4.9909,4.9908,0,0,5.0023,5.0017,5.0095,5.0095,5.0094,5.0064,5.0083,5.0066,5.0054,5.0129,5.0054,5.0095,5.0159,5.0163,5.0173,5.0361,5.0302,5.0373,5.049,5.0552,5.0575,5.0596,5.0664,5.0689,5.0387,5.0387,5.0387,0,5.0132,5.02,5.0142,5.0202,5.0217,5.0127,5.0206,5.021,5.0219,5.0232,5.0178,5.0257,5.0251,5.0351,5.0397,5.0408,5.0429,5.0374,5.0577,5.0596,5.0615,5.0679,5.0705,5.0396,5.0395,5.0394,5.0393,0,5.0335,5.0385,5.0448,5.0459,5.0481,5.0551,5.0504,5.0533,5.0491,5.0467,5.0545,5.0535,5.0563,5.0584,5.0543,5.068,5.065,5.0588,5.0493,5.0653,5.0712,5.0736,5.0408,5.0405,5.0403,5.04,0,0,5.0605,5.0584,5.0609,5.0613,5.0606,5.0643,5.071,5.0737,5.0764,5.0774,5.0829,5.0885,5.0827,5.084,5.0798,5.0853,5.1004,5.0783,5.0782,5.0826,5.1155,5.1203,5.1233,5.0964,5.0969,5.0972,5.1155,0,5.0785,5.0896,5.0846,5.0963,5.1009,5.0924,5.0982,5.0985,5.0965,5.1001,5.0978,5.102,5.094,5.0947,5.0996,5.0975,5.1069,5.0961,5.1016,5.1019,5.1019,5.1263,5.1314,5.1487,5.1178,5.1182,5.1185,0,5.1008,5.1028,5.115,5.1136,5.1153,5.1206,5.1228,5.1263,5.1265,5.1246,5.1261,5.1208,5.1273,5.1178,5.1267,5.1195,5.1215,5.1208,5.1213,5.1217,5.1112,5.1275,5.1541,5.1568,5.1221,5.1218,5.1215,0,5.1195,5.1252,5.1332,5.1339,5.1324,5.1364,5.1359,5.1356,5.1376,5.1395,5.1408,5.1435,5.145,5.1473,5.1429,5.1363,5.1525,5.1426,5.1512,5.1514,5.1551,5.1549,5.1825,5.1562,5.1562,5.1561,5.1561,0,5.1401,5.148,5.1416,5.1466,5.1552,5.1494,5.1581,5.1567,5.1565,5.1611,5.154,5.1585,5.1524,5.1564,5.153,5.161,5.1617,5.1604,5.1595,5.1612,5.1613,5.1624,5.1611,5.1568,5.1567,5.1565,5.1564,0,5.1624,5.1585,5.1667,5.1647,5.1643,5.1708,5.169,5.1736,5.1711,5.1771,5.1782,5.1743,5.1786,5.1744,5.1784,5.1762,5.187,5.1842,5.1869,5.1862,5.1951,5.1944,5.2244,5.2281,5.1994,5.1997,5.1999,0,5.1759,5.1817,5.1803,5.1829,5.1829,5.1872,5.1892,5.1837,5.1862,5.1869,5.1914,5.1951,5.1978,5.2051,5.2027,5.2058,5.2031,5.2134,5.2035,5.2051,5.2034,5.2032,5.2038,5.2155,5.2158,5.2161,5.2163,0,5.2002,5.198,5.2012,5.2039,5.2065,5.2083,5.2095,5.2121,5.2064,5.2095,5.2139,5.216,5.2201,5.224,5.2263,5.2259,5.2203,5.2194,5.2216,5.2235,5.2249,5.2244,5.1926,5.2188,5.2185,5.2184,5.2182,5.2181,5.2186,5.2235,5.2233,5.2271,5.2275,5.2288,5.2331,5.2311,5.2346,5.2376,5.2341,5.2395,5.2396,5.2422,5.2425,5.2467,5.2423,5.2455,5.2463,5.2472,5.2486,5.2242,5.2471,5.247,5.2469,5.2469,5.2468,0,5.2427,5.2422,5.2458,5.2478,5.2509,5.2452,5.2463,5.2493,5.2541,5.2546,5.2574,5.2625,5.2662,5.2641,5.2673,5.2711,5.2686,5.2721,5.2718,5.2719,5.2522,5.25,5.2741,5.2741,5.2741,5.2741,5.274,5.274,5.2556,5.2636,5.2614,5.2696,5.2689,5.2741,5.2753,5.2765,5.277,5.2829,5.286,5.2845,5.2841,5.2872,5.2904,5.2897,5.2913,5.2958,5.2942,5.2759,5.2732,5.2707,5.2686,5.2961,5.2962,5.3135,5.3137,5.3138]},{"header":{"parameterUnit":"m.s-1","parameterCategory":1,"la1":30.2991,"la2":30.254,"lo1":-89.0895,"lo2":-89.0444,"dy":0.0017,"dx":0.0017,"nx":28,"ny":28,"refTime":"2025-03-09T03:00:00:Z","depth":0,"parameterNumber":3,"parameterNumberName":"V-component_of_WINDS"},"data":[0,0,0,0,0,0,0,0,0,0,0,0,0,0,0,0,0,0,0,0,0,0,0,0,0,0,0,0,0,0,0,0,0,0,0,0,0,0,0,0,0,0,0,0,0,0,0,0,0,0,0,0,0,0,0,0,0,0,-4.4948,-4.4949,0,-4.5114,-4.5115,-4.5117,-4.5112,-4.511,-4.5107,-4.5105,-4.5279,-4.5285,-4.5292,0,0,0,0,0,0,0,0,0,0,0,0,0,-4.4629,-4.4635,-4.4947,-4.4949,-4.4951,-4.5113,-4.5116,-4.5118,-4.5112,-4.511,-4.5107,-4.5104,-4.5277,-4.5285,-4.5293,0,0,0,0,0,0,0,0,0,0,0,0,0,-4.4779,-4.4637,-4.4947,-4.4968,-4.4972,-4.5113,-4.5116,-4.5118,-4.5113,-4.511,-4.5106,-4.5103,-4.5274,-4.5284,-4.5294,-4.5426,0,0,-4.5325,-4.5329,0,0,0,0,0,0,0,0,-4.477,-4.4791,-4.4963,-4.4967,-4.4971,-4.5088,-4.5067,-4.5222,-4.5114,-4.506,-4.5105,-4.5101,-4.5219,-4.5233,-4.5272,-4.5434,-4.5441,-4.5326,-4.5332,-4.5336,-4.5339,0,0,0,0,0,0,0,-4.476,-4.4783,-4.5013,-4.4966,-4.4971,-4.4971,-4.4988,-4.5096,-4.5157,-4.5064,-4.5064,-4.5084,-4.522,-4.5262,-4.5276,-4.5444,-4.5326,-4.5335,-4.5341,-4.5345,-4.5724,-4.5728,0,0,0,0,0,0,-4.4745,-4.4775,-4.5008,-4.5018,-4.486,-4.4979,-4.4999,-4.5054,-4.5155,-4.5167,-4.5086,-4.5083,-4.5247,-4.5264,-4.5282,-4.5444,-4.5336,-4.5346,-4.5352,-4.572,-4.5725,-4.5729,0,0,0,0,0,0,-4.4738,-4.4765,-4.5001,-4.4897,-4.4927,-4.4988,-4.5051,-4.5059,-4.5101,-4.5172,-4.5183,-4.5118,-4.5244,-4.5268,-4.539,-4.545,-4.535,-4.536,-4.5716,-4.5722,-4.5727,-4.5769,0,0,0,0,0,0,-4.4729,-4.4763,-4.4813,-4.4898,-4.4932,-4.5106,-4.5055,-4.5065,-4.5119,-4.5115,-4.5205,-4.5216,-4.5244,-4.5375,-4.54,-4.5462,-4.5368,-4.5711,-4.5718,-4.5725,-4.5762,-4.5775,-4.5787,0,0,0,0,0,-4.4717,-4.4818,-4.4815,-4.4844,-4.4995,-4.5109,-4.5129,-4.5157,-4.5123,-4.5175,-4.522,-4.5213,-4.5439,-4.5388,-4.5416,-4.5482,-4.5707,-4.5716,-4.5725,-4.5757,-4.5773,-4.5786,0,0,0,0,0,0,-4.474,-4.483,-4.4827,-4.4959,-4.5026,-4.5108,-4.5173,-4.5173,-4.5252,-4.5246,-4.5279,-4.5299,-4.5422,-4.5464,-4.5405,-4.5616,-4.5569,-4.5584,-4.5584,-4.5599,-4.5611,-4.5599,-4.5376,0,0,0,0,0,-4.476,-4.4843,-4.4918,-4.5027,-4.506,-4.5111,-4.5162,-4.5178,-4.5249,-4.5278,-4.5333,-4.5403,-4.5491,-4.5547,-4.5631,-4.5768,-4.5789,-4.5828,-4.584,-4.5849,-4.5862,-4.594,-4.5958,-4.5759,-4.5759,-4.5759,0,0,-4.4803,-4.4862,-4.4913,-4.5033,-4.5087,-4.5174,-4.5135,-4.5229,-4.5294,-4.5293,-4.5412,-4.5454,-4.5536,-4.5666,-4.5726,-4.5705,-4.5922,-4.5861,-4.5868,-4.5876,-4.5951,-4.5969,-4.5986,-4.5765,-4.5764,-4.5763,0,0,-4.4925,-4.4978,-4.5075,-4.513,-4.5212,-4.5245,-4.5268,-4.535,-4.5378,-4.5498,-4.5499,-4.5578,-4.5727,-4.5785,-4.5834,-4.5979,-4.5977,-4.6006,-4.607,-4.6144,-4.616,-4.6174,-4.6227,-4.6246,-4.6018,-4.6018,-4.6018,0,-4.4969,-4.5098,-4.5125,-4.5219,-4.5272,-4.5274,-4.5373,-4.5426,-4.5532,-4.5569,-4.5543,-4.5731,-4.5785,-4.593,-4.5966,-4.6005,-4.6034,-4.5996,-4.6155,-4.617,-4.6183,-4.6234,-4.6254,-4.6021,-4.6021,-4.6021,-4.602,0,-4.5148,-4.5238,-4.5307,-4.5408,-4.5469,-4.5565,-4.5608,-4.5666,-4.5677,-4.5713,-4.5836,-4.5902,-4.6,-4.6035,-4.6047,-4.6183,-4.6167,-4.6148,-4.6102,-4.6205,-4.6254,-4.6273,-4.6026,-4.6025,-4.6024,-4.6023,0,0,-4.529,-4.5404,-4.5429,-4.5476,-4.5566,-4.5637,-4.5734,-4.5829,-4.5879,-4.5952,-4.6036,-4.6162,-4.6145,-4.6201,-4.6219,-4.6285,-4.6397,-4.6258,-4.626,-4.6283,-4.6552,-4.6567,-4.6589,-4.6395,-4.6399,-4.6402,-4.6546,0,-4.5423,-4.5593,-4.562,-4.5771,-4.5855,-4.5858,-4.5943,-4.6009,-4.6046,-4.6124,-4.6165,-4.6254,-4.6224,-4.6258,-4.6323,-4.637,-4.6452,-4.636,-4.6475,-4.6479,-4.6455,-4.6614,-4.6629,-4.6761,-4.6565,-4.6568,-4.657,0,-4.5601,-4.5677,-4.5836,-4.5916,-4.5953,-4.6028,-4.6117,-4.6191,-4.6267,-4.6289,-4.6351,-4.6362,-4.6465,-4.6413,-4.6556,-4.6492,-4.6541,-4.6571,-4.6577,-4.659,-4.6531,-4.6632,-4.6804,-4.6824,-4.66,-4.6598,-4.6596,0,-4.569,-4.5833,-4.5946,-4.5986,-4.6082,-4.6135,-4.6178,-4.6249,-4.6305,-4.6383,-4.642,-4.651,-4.6559,-4.6629,-4.6665,-4.6624,-4.6805,-4.6757,-4.6828,-4.6827,-4.6867,-4.6864,-4.7051,-4.6897,-4.6896,-4.6896,-4.6895,0,-4.5836,-4.5933,-4.5988,-4.6058,-4.6167,-4.6198,-4.6306,-4.6348,-4.6412,-4.6491,-4.6499,-4.6574,-4.6616,-4.6697,-4.6725,-4.684,-4.6862,-4.6884,-4.6891,-4.6884,-4.6881,-4.6917,-4.6909,-4.6901,-4.69,-4.6899,-4.6898,0,-4.5954,-4.5994,-4.6119,-4.6199,-4.6221,-4.6299,-4.6368,-4.6438,-4.6473,-4.6574,-4.66,-4.6657,-4.6753,-4.6795,-4.6914,-4.6933,-4.7064,-4.7064,-4.7039,-4.7041,-4.7111,-4.7104,-4.7328,-4.7359,-4.7183,-4.7185,-4.7186,0,-4.6045,-4.612,-4.6208,-4.6261,-4.6305,-4.6391,-4.6447,-4.648,-4.6539,-4.6631,-4.6689,-4.6785,-4.6864,-4.7018,-4.7071,-4.7162,-4.7165,-4.7237,-4.7179,-4.717,-4.7168,-4.7163,-4.7172,-4.7248,-4.725,-4.7251,-4.7252,0,-4.6203,-4.6219,-4.6299,-4.6387,-4.6454,-4.6525,-4.6594,-4.6638,-4.6682,-4.6748,-4.6846,-4.6907,-4.7028,-4.7124,-4.7219,-4.7264,-4.7267,-4.727,-4.7292,-4.7286,-4.7269,-4.7281,-4.7069,-4.7265,-4.7264,-4.7263,-4.7262,-4.7261,-4.6312,-4.6379,-4.6451,-4.6541,-4.6596,-4.6661,-4.673,-4.6774,-4.6856,-4.6956,-4.6971,-4.7076,-4.7151,-4.7278,-4.7327,-4.7411,-4.7393,-4.7424,-4.7432,-4.744,-4.7445,-4.7254,-4.7428,-4.7428,-4.7428,-4.7427,-4.7427,0,-4.6471,-4.6518,-4.6599,-4.6696,-4.6767,-4.6761,-4.6838,-4.6898,-4.699,-4.7058,-4.7135,-4.7248,-4.7342,-4.7402,-4.7497,-4.7552,-4.7556,-4.7576,-4.7573,-4.7584,-4.7454,-4.7427,-4.7572,-4.7572,-4.7572,-4.7572,-4.7572,-4.7572,-4.6562,-4.6676,-4.6701,-4.6842,-4.6888,-4.699,-4.7035,-4.7095,-4.715,-4.7276,-4.7353,-4.7391,-4.7457,-4.7557,-4.7643,-4.7658,-4.7693,-4.7715,-4.773,-4.7608,-4.7593,-4.7579,-4.7553,-4.7722,-4.7722,-4.7853,-4.7854,-4.7855]}]]